Regional Weather Roundup
Issued by NWS

Home | Current Version | Previous Version | Text Only | Print | Product List | Glossary Off
Versions: 1 2 3 4 5 6 7 8 9 10 11 12 13 14 15 16 17 18 19 20 21 22 23 24 25 26 27 28 29 30 31 32 33 34 35 36 37 38 39 40 41 42 43 44 45 46 47 48 49 50

038
ASUS44 KMEG 282010
RWRTN
TENNESSEE HOURLY STATE WEATHER ROUNDUP
NATIONAL WEATHER SERVICE MEMPHIS TN
300 PM CDT THU APR 28 2016

TNZ002-004-019-021-049-052-054-088>092-282100-
WEST TENNESSEE

CITY           SKY/WX    TMP DP  RH WIND       PRES   REMARKS
MEMPHIS INTL   MOSUNNY   83  55  38 W7        29.94S
NWS MEMPHIS      N/A     84 N/A N/A MISG        N/A
JACKSON        SUNNY     81  53  37 W8        29.93S
DYERSBURG      SUNNY     81  50  34 SW13      29.93S
UNION CITY     SUNNY     79  52  38 SW10      29.91S
LEXINGTON      SUNNY     81  55  41 W14       29.92S
$$

TNZ008-025-027-028-033-062-065-066-282100-
NORTH MIDDLE TENNESSEE

CITY           SKY/WX    TMP DP  RH WIND       PRES   REMARKS
NASHVILLE      PTSUNNY   83  56  39 VRB7      29.90S
CLARKSVILLE    SUNNY     78  55  44 W12       29.90S
SMYRNA         MOSUNNY   84  58  41 W13G20    29.90S
COOKEVILLE     MOSUNNY   81  63  54 SW8       29.90F
CROSSVILLE     MOSUNNY   77  55  46 W13G20    29.95F
$$

TNZ061-075-076-078-094-096-097-282100-
SOUTH MIDDLE TENNESSEE

CITY           SKY/WX    TMP DP  RH WIND       PRES   REMARKS
FAYETTEVILLE   MOSUNNY   82  61  47 SW12G18   29.93S
TULLAHOMA      MOSUNNY   81  59  47 SW16      29.93F
WINCHESTER     MOSUNNY   82  57  42 VRB7      29.93S
MCMINNVILLE    MOSUNNY   81  61  50 SW15      29.92S
COLUMBIA       SUNNY     84  55  37 W14       29.90S
SHELBYVILLE    MOSUNNY   84  63  48 SW15      29.91F
$$

TNZ017-018-042-046-047-282100-
NORTHEAST TENNESSEE

CITY           SKY/WX    TMP DP  RH WIND       PRES   REMARKS
TRI CITIES     MOSUNNY   79  54  41 W14G24    29.89F
$$

TNZ012-013-036-069-073-074-282100-
CENTRAL EAST TENNESSEE

CITY           SKY/WX    TMP DP  RH WIND       PRES   REMARKS
KNOXVILLE      MOSUNNY   82  57  42 SW15      29.90S
OAK RIDGE      MOSUNNY   82  56  40 VRB6G16   29.90F
GATLINBURG     CLEAR     81  54  39 W17       29.89S
MORRISTOWN     PTCLDY    79  57  47 W16       29.90F
$$

TNZ083-085-099-282100-
SOUTHEAST TENNESSEE

CITY           SKY/WX    TMP DP  RH WIND       PRES   REMARKS
CHATTANOOGA    MOSUNNY   85  53  33 SW13G20   29.90F
$$

SKY/WX REPORTED AS FAIR MEANS FEW OR NO CLOUDS BELOW
12 THOUSAND FEET.





USA.gov is the U.S. government's official web portal to all federal, state and local government web resources and services.